Vacaville, CA

4:01 AM PDT on September 27, 2016 (GMT -0700)
Nut Tree

Weather History for KVCB - November, 2011

Change the Weather History Date:

Wednesday, November 2, 2011

  Actual Average Record
Temperature  
Mean Temperature 60 °F -  
Max Temperature 73 °F 73 °F 87 °F (1949)
Min Temperature 48 °F 45 °F 31 °F (1952)
Degree Days  
Heating Degree Days 4    
Growing Degree Days 10 (Base 50)    
Moisture  
Dew Point 16 °F    
Average Humidity 20    
Maximum Humidity 54    
Minimum Humidity 9    
Precipitation  
Precipitation 0.00 in - - ()
Sea Level Pressure  
Sea Level Pressure 30.08 in    
Wind  
Wind Speed 9 mph (North)    
Max Wind Speed 16 mph    
Max Gust Speed 25 mph    
Visibility 10 miles    
Events      
Averages and records for this station are not official NWS values.
T = Trace of Precipitation, MM = Missing Value Source: NWS Daily Summary

Daily Weather History Graph

Daily Weather History Graph

Search for Another Location

Airport or City:

Trip Planner

Search our weather history database for the weather conditions in past years. The results will help you decide how hot, cold, wet, or windy it might be!

Date:

Astronomy

Nov. 02, 2011 Rise Set
Actual Time 7:35 AM PDT 6:07 PM PDT
Civil Twilight 7:07 AM PDT 6:34 PM PDT
Nautical Twilight 6:36 AM PDT 7:05 PM PDT
Astronomical Twilight 6:05 AM PDT 7:36 PM PDT
Moon 1:57 PM PDT (11/2) No Moon Set
Length of Visible Light 11h 27m
Length of Day
10h 32m
Waxing Crescent, 51% of the Moon is Illuminated
Nov 2
Waxing Crescent
Nov 10
Full
Nov 18
Last Quarter
Nov 24
New
Dec 2
First Quarter

Hourly Weather History & Observations

Time (PDT) Temp. Dew Point Humidity Pressure Visibility Wind Dir Wind Speed Gust Speed Precip Events Conditions
12:53 AM 63.0 °F 3.9 °F 10% 30.09 in 10.0 mi North 13.8 mph 25.3 mph N/A   Clear
1:53 AM 63.0 °F 5.0 °F 10% 30.09 in 10.0 mi North 15.0 mph 25.3 mph N/A   Clear
2:53 AM 62.1 °F 3.9 °F 10% 30.08 in 10.0 mi North 13.8 mph 21.9 mph N/A   Clear
3:53 AM 62.1 °F 3.0 °F 9% 30.08 in 10.0 mi North 16.1 mph 23.0 mph N/A   Clear
4:53 AM 62.1 °F 3.0 °F 9% 30.10 in 10.0 mi North 12.7 mph 21.9 mph N/A   Clear
5:53 AM 60.1 °F 3.0 °F 10% 30.10 in 10.0 mi North 9.2 mph 18.4 mph N/A   Clear
6:53 AM 57.9 °F 3.9 °F 11% 30.10 in 10.0 mi North 10.4 mph 16.1 mph N/A   Clear
7:53 AM 57.0 °F 5.0 °F 12% 30.12 in 10.0 mi North 6.9 mph - N/A   Clear
8:53 AM 61.0 °F 7.0 °F 12% 30.14 in 10.0 mi North 8.1 mph - N/A   Clear
9:53 AM 66.0 °F 8.1 °F 10% 30.16 in 10.0 mi North 5.8 mph - N/A   Clear
10:53 AM 68.0 °F 10.0 °F 11% 30.16 in 10.0 mi NNE 9.2 mph - N/A   Clear
11:53 AM 70.0 °F 10.9 °F 10% 30.15 in 10.0 mi NNE 6.9 mph - N/A   Clear
12:53 PM 72.0 °F 10.9 °F 10% 30.13 in 10.0 mi Variable 5.8 mph - N/A   Clear
1:53 PM 73.0 °F 15.1 °F 11% 30.11 in 10.0 mi Variable 4.6 mph - N/A   Clear
2:53 PM 72.0 °F 21.9 °F 15% 30.09 in 10.0 mi Calm Calm - N/A   Clear
3:53 PM 72.0 °F 28.9 °F 20% 30.07 in 10.0 mi Variable 3.5 mph - N/A   Clear
4:53 PM 70.0 °F 30.9 °F 24% 30.05 in 10.0 mi Calm Calm - N/A   Clear
5:53 PM 66.0 °F 30.0 °F 26% 30.03 in 10.0 mi ESE 3.5 mph - N/A   Clear
6:53 PM 57.9 °F 32.0 °F 37% 30.03 in 3.0 mi WSW 4.6 mph - N/A   Haze
7:53 PM 54.0 °F 32.0 °F 43% 30.02 in 6.0 mi Calm Calm - N/A   Haze
8:53 PM 55.9 °F 30.0 °F 37% 30.01 in 10.0 mi Calm Calm - N/A   Clear
9:53 PM 57.0 °F 28.9 °F 34% 30.01 in 10.0 mi SW 4.6 mph - N/A   Clear
10:53 PM 48.9 °F 30.9 °F 50% 30.00 in 10.0 mi Calm Calm - N/A   Clear
11:53 PM 48.9 °F 33.1 °F 54% 30.01 in 10.0 mi Calm Calm - N/A   Clear